Tracking 18942 objects as of 18-Jan-2018
HD Live streaming from Space Station
objects crossing your sky now

COSMOS 412

Track COSMOS 412 now!
10-day predictions
COSMOS 412 is classified as:


NORAD ID: 5211
Int'l Code: 1971-041B
Perigee: 1,486.1 km
Apogee: 1,542.7 km
Inclination: 74.0 °
Period: 116.1 minutes
Semi major axis: 7885 km
RCS: 0.7281 m2 (medium)
Launch date: May 7, 1971
Source: Commonwealth of Independent States (former USSR) (CIS)
Launch site: PLESETSK MISSILE AND SPACE COMPLEX (PKMTR)
aabbcc
Your satellite tracking list
Your tracking list is empty




NASA's NSSDC Master Catalog

Two Line Element Set (TLE):
1  5211U 71041B   18017.46941252 -.00000021 +00000-0 -36915-4 0  9995
2  5211 074.0141 153.8352 0035859 299.5227 127.8793 12.39841758352961
Source of the keplerian elements: AFSPC